Location: Blanot
(47.1713°N, 4.2340°E)
Time: 08:14:25
(UTC+00:00)

Cosmos 1184 Rocket - Pass Details

Date: 14 July 2020
Orbit: 408 x 422 km, 81.2° (Epoch: 14 August)

Event Time Altitude Azimuth Distance (km) Brightness Sun altitude
Exits shadow 00:50:05 75° 106° (ESE) 436 2.7 -19.8°
Maximum altitude 00:50:07 75° 99° (E) 435 2.7 -19.8°
Drops below altitude 10° 00:53:23 10° 14° (NNE) 1,505 6.8 -19.7°
Sets 00:55:26 0° 13° (NNE) 2,377 8.2 -19.6°
